Weather History for KONM - June, 2013

Change the Weather History Date:

Sunday, June 9, 2013

  Actual Average Record
Temperature  
Mean Temperature 82 °F -  
Max Temperature 99 °F 88 °F 99 °F (2013)
Min Temperature 65 °F 51 °F 55 °F (2012)
Cooling Degree Days 17    
Growing Degree Days 32 (Base 50)    
Moisture  
Dew Point 38 °F    
Average Humidity 23    
Maximum Humidity 49    
Minimum Humidity 7    
Precipitation  
Precipitation 0.00 in - - ()
Sea Level Pressure  
Sea Level Pressure 30.02 in    
Wind  
Wind Speed 7 mph (North)    
Max Wind Speed 13 mph    
Max Gust Speed 17 mph    
Visibility 10 miles    
Events      
Averages and records for this station are not official NWS values.
T = Trace of Precipitation, MM = Missing Value Source: NWS Daily Summary

Daily Weather History Graph

Daily Weather History Graph

Search for Another Location

Airport or City:

Trip Planner

Search our weather history database for the weather conditions in past years. The results will help you decide how hot, cold, wet, or windy it might be!

Date:

Astronomy

Jun. 09, 2013 Rise Set
Actual Time 5:55 AM MDT 8:18 PM MDT
Civil Twilight 5:26 AM MDT 8:47 PM MDT
Nautical Twilight 4:51 AM MDT 9:23 PM MDT
Astronomical Twilight 4:12 AM MDT 10:02 PM MDT
Moon 6:52 AM MDT (6/9) 9:10 PM MDT (6/9)
Length of Visible Light 15h 20m
Length of Day
14h 22m
New Moon, 1% of the Moon is Illuminated
Jun 9
New Moon
Jun 16
First Quarter
Jun 23
Full
Jun 29
Last Quarter
Jul 8
New

Hourly Weather History & Observations

Time (MDT) Temp. Dew Point Humidity Pressure Visibility Wind Dir Wind Speed Gust Speed Precip Events Conditions
12:15 AM 75.4 °F 21.6 °F 13% 29.93 in 10.0 mi North 10.4 mph - N/A   Clear
12:35 AM 77.4 °F 23.4 °F 13% 29.95 in 10.0 mi NNE 5.8 mph - N/A   Clear
12:55 AM 77.2 °F 25.7 °F 15% 29.96 in 10.0 mi NW 6.9 mph - N/A   Clear
1:15 AM 78.6 °F 32.7 °F 19% 29.97 in 10.0 mi WNW 6.9 mph - N/A   Clear
1:35 AM 77.9 °F 37.2 °F 23% 29.98 in 10.0 mi North 4.6 mph - N/A   Clear
1:55 AM 76.6 °F 40.5 °F 27% 29.98 in 10.0 mi NW 8.1 mph - N/A   Clear
2:15 AM 74.3 °F 41.7 °F 31% 29.98 in 10.0 mi NNW 5.8 mph - N/A   Clear
2:35 AM 75.4 °F 43.7 °F 32% 29.98 in 10.0 mi North 11.5 mph 17.3 mph N/A   Clear
2:55 AM 74.7 °F 44.6 °F 34% 29.99 in 10.0 mi North 11.5 mph 17.3 mph N/A   Clear
3:15 AM 73.0 °F 45.5 °F 37% 30.00 in 10.0 mi NNW 9.2 mph - N/A   Clear
3:35 AM 72.0 °F 47.1 °F 41% 30.01 in 10.0 mi NNW 8.1 mph - N/A   Clear
3:55 AM 71.6 °F 47.7 °F 43% 30.02 in 10.0 mi NNW 9.2 mph - N/A   Clear
4:15 AM 70.7 °F 47.5 °F 44% 30.04 in 10.0 mi NNW 10.4 mph - N/A   Clear
4:35 AM 69.8 °F 47.5 °F 45% 30.05 in 10.0 mi NNW 6.9 mph - N/A   Clear
4:55 AM 69.3 °F 47.1 °F 45% 30.05 in 10.0 mi NNW 6.9 mph - N/A   Clear
5:15 AM 68.4 °F 46.8 °F 46% 30.06 in 10.0 mi Calm Calm - N/A   Clear
5:35 AM 66.2 °F 46.4 °F 49% 30.06 in 10.0 mi Calm Calm - N/A   Clear
5:55 AM 65.8 °F 46.0 °F 49% 30.06 in 10.0 mi NNW 4.6 mph - N/A   Clear
6:15 AM 66.2 °F 45.9 °F 48% 30.06 in 10.0 mi North 5.8 mph - N/A   Clear
6:35 AM 67.6 °F 46.4 °F 46% 30.06 in 10.0 mi NNW 6.9 mph - N/A   Clear
6:55 AM 69.8 °F 46.8 °F 44% 30.06 in 10.0 mi NNW 8.1 mph - N/A   Clear
7:15 AM 71.6 °F 46.4 °F 41% 30.06 in 10.0 mi NNW 9.2 mph - N/A   Clear
7:35 AM 72.5 °F 45.5 °F 38% 30.06 in 10.0 mi NNW 11.5 mph - N/A   Clear
7:55 AM 73.6 °F 44.6 °F 35% 30.07 in 10.0 mi North 12.7 mph - N/A   Clear
8:15 AM 75.2 °F 45.0 °F 34% 30.08 in 10.0 mi North 10.4 mph - N/A   Clear
8:35 AM 76.5 °F 45.1 °F 33% 30.08 in 10.0 mi North 8.1 mph - N/A   Clear
8:55 AM 77.7 °F 45.0 °F 31% 30.09 in 10.0 mi North 6.9 mph - N/A   Clear
9:15 AM 79.3 °F 45.3 °F 30% 30.09 in 10.0 mi NNE 6.9 mph - N/A   Clear
9:35 AM 80.1 °F 44.6 °F 29% 30.08 in 10.0 mi North 6.9 mph - N/A   Clear
9:55 AM 82.2 °F 45.0 °F 27% 30.08 in 10.0 mi North 5.8 mph - N/A   Clear
10:15 AM 82.4 °F 45.0 °F 27% 30.08 in 10.0 mi North 4.6 mph - N/A   Clear
10:35 AM 83.8 °F 44.8 °F 25% 30.08 in 10.0 mi NNW 5.8 mph - N/A   Clear
10:55 AM 85.8 °F 44.2 °F 23% 30.08 in 10.0 mi North 9.2 mph - N/A   Clear
11:15 AM 87.1 °F 42.6 °F 21% 30.08 in 10.0 mi North 9.2 mph - N/A   Clear
11:35 AM 88.0 °F 39.6 °F 18% 30.08 in 10.0 mi NNW 4.6 mph - N/A   Clear
11:55 AM 88.5 °F 39.0 °F 17% 30.08 in 10.0 mi NE 5.8 mph - N/A   Clear
12:15 PM 90.0 °F 39.6 °F 17% 30.07 in 10.0 mi NNE 10.4 mph - N/A   Clear
12:35 PM 90.7 °F 39.4 °F 17% 30.06 in 10.0 mi NE 9.2 mph - N/A   Clear
12:55 PM 92.5 °F 37.0 °F 14% 30.06 in 10.0 mi North 8.1 mph - N/A   Clear
1:15 PM 93.2 °F 35.1 °F 13% 30.04 in 10.0 mi NNW 9.2 mph - N/A   Clear
1:35 PM 93.9 °F 36.9 °F 14% 30.04 in 10.0 mi Calm Calm - N/A   Clear
1:55 PM 94.6 °F 37.0 °F 13% 30.04 in 10.0 mi North 5.8 mph - N/A   Clear
2:15 PM 95.9 °F 35.2 °F 12% 30.03 in 10.0 mi Calm Calm - N/A   Clear
2:35 PM 96.4 °F 32.0 °F 10% 30.02 in 10.0 mi North 6.9 mph - N/A   Clear
2:55 PM 96.8 °F 32.9 °F 11% 30.02 in 10.0 mi Calm Calm - N/A   Clear
3:15 PM 98.1 °F 33.3 °F 10% 30.01 in 10.0 mi North 8.1 mph - N/A   Clear
3:35 PM 98.2 °F 32.9 °F 10% 30.00 in 10.0 mi NNW 5.8 mph - N/A   Clear
3:55 PM 98.8 °F 31.8 °F 10% 29.99 in 10.0 mi NE 10.4 mph - N/A   Clear
4:15 PM 99.3 °F 30.6 °F 9% 29.99 in 10.0 mi North 6.9 mph - N/A   Clear
4:35 PM 99.3 °F 27.1 °F 8% 29.99 in 10.0 mi NE 9.2 mph - N/A   Clear
4:55 PM 99.0 °F 26.8 °F 8% 29.98 in 10.0 mi ENE 6.9 mph - N/A   Clear
5:15 PM 99.3 °F 26.2 °F 7% 29.97 in 10.0 mi North 8.1 mph - N/A   Clear
5:35 PM 98.2 °F 24.8 °F 7% 29.97 in 10.0 mi NNE 4.6 mph - N/A   Clear
5:55 PM 99.0 °F 25.2 °F 7% 29.96 in 10.0 mi East 6.9 mph - N/A   Clear
6:15 PM 98.4 °F 24.6 °F 7% 29.96 in 10.0 mi North 5.8 mph - N/A   Clear
6:35 PM 98.1 °F 23.7 °F 7% 29.96 in 10.0 mi NE 4.6 mph - N/A   Clear
6:55 PM 97.3 °F 23.5 °F 7% 29.95 in 10.0 mi Calm Calm - N/A   Clear
7:15 PM 96.8 °F 23.5 °F 7% 29.96 in 10.0 mi East 3.5 mph - N/A   Clear
7:35 PM 96.1 °F 23.0 °F 7% 29.96 in 10.0 mi Calm Calm - N/A   Clear
7:55 PM 95.0 °F 26.1 °F 9% 29.96 in 10.0 mi Calm Calm - N/A   Clear
8:15 PM 92.3 °F 25.3 °F 9% 29.96 in 10.0 mi Calm Calm - N/A   Clear
8:35 PM 88.0 °F 23.5 °F 10% 29.97 in 10.0 mi SSE 4.6 mph - N/A   Clear
8:55 PM 87.4 °F 41.2 °F 20% 29.99 in 10.0 mi SSE 8.1 mph - N/A   Clear
9:15 PM 87.3 °F 45.5 °F 23% 29.99 in 10.0 mi South 11.5 mph - N/A   Clear
9:35 PM 86.2 °F 45.9 °F 24% 30.00 in 10.0 mi South 9.2 mph - N/A   Clear
9:55 PM 85.3 °F 46.4 °F 26% 30.01 in 10.0 mi South 8.1 mph - N/A   Clear
10:15 PM 84.6 °F 46.4 °F 26% 30.03 in 10.0 mi South 8.1 mph - N/A   Clear
10:35 PM 83.8 °F 46.4 °F 27% 30.04 in 10.0 mi SSW 6.9 mph - N/A   Clear
10:55 PM 82.6 °F 46.6 °F 28% 30.04 in 10.0 mi SSW 6.9 mph - N/A   Clear
11:15 PM 82.4 °F 46.6 °F 28% 30.04 in 10.0 mi SSW 8.1 mph - N/A   Clear
11:35 PM 82.4 °F 46.6 °F 28% 30.04 in 10.0 mi SSW 9.2 mph - N/A   Clear
11:55 PM 82.4 °F 46.6 °F 28% 30.05 in 10.0 mi South 9.2 mph - N/A   Clear